Location: Helsinki
(60.1699°N, 24.9384°E)
Time: 19:43:48
(UTC+02:00)

Transit 4A - Pass Details

Date: 02 November 2020
Orbit: 862 x 982 km, 66.8° (Epoch: 30 November)

Event Time Altitude Azimuth Distance (km) Brightness Sun altitude
Rises 19:55:20 0° 295° (WNW) 3,685 12.3 -26.7°
Reaches altitude 10° 19:57:58 10° 300° (WNW) 2,742 11.3 -27.1°
Maximum altitude 20:04:17 54° 17° (NNE) 1,185 8.3 -27.8°
Enters shadow 20:04:57 52° 40° (NE) 1,213 8.3 -27.9°
Drops below altitude 10° 20:10:34 10° 95° (E) 2,729 - -28.5°
Sets 20:13:12 0° 100° (E) 3,665 - -28.8°
